Location: Unspecified
(0.0000°N, 0.0000°E)
Time: 13:46:59
(UTC+00:00)

Hubble Space Telescope - Pass Details

Date: 31 March 2020
Orbit: 536 x 540 km, 28.5° (Epoch: 01 April)

Event Time Altitude Azimuth Distance (km) Brightness Sun altitude
Rises 05:06:53 0° 333° (NNW) 2,667 4.1 -14.3°
Reaches altitude 10° 05:10:37 10° 7° (N) 1,779 3.6 -13.3°
Maximum altitude 05:12:02 12° 27° (NNE) 1,685 3.7 -13.0°
Drops below altitude 10° 05:13:27 10° 47° (NE) 1,781 4.2 -12.6°
Sets 05:17:10 0° 81° (E) 2,674 6.5 -11.7°
